When you browse on this site, cookies collect data to enhance your experience and personalize the content and advertising you see.
Visit our Privacy Policy to learn more. By continuing to use the site, you agree to this use of cookies and data.

Hourly Weather Kalat

Today, 13 August, Thursday

Time Temperature Precipitation Wind Pressure Humidity
00:00 +8°C° 0 mm 2 mps 479 mmHg 56%
01:00 +9°C° 0 mm 1 mps 478 mmHg 58%
02:00 +8°C° 0 mm 1 mps 478 mmHg 60%
03:00 +8°C° 0 mm 1 mps 477 mmHg 61%
04:00 +7°C° 0 mm 1 mps 477 mmHg 63%
05:00 +7°C° 0 mm 1 mps 477 mmHg 64%
06:00 +7°C° 0 mm 1 mps 477 mmHg 59%
07:00 +8°C° 0 mm 1 mps 478 mmHg 54%
08:00 +7°C° 0 mm 2 mps 478 mmHg 49%
09:00 +9°C° 0 mm 2 mps 479 mmHg 42%
10:00 +12°C° 0 mm 2 mps 480 mmHg 34%
11:00 +13°C° 0 mm 2 mps 481 mmHg 27%
12:00 +14°C° 0 mm 2 mps 481 mmHg 25%
13:00 +14°C° 0 mm 3 mps 482 mmHg 24%
14:00 +17°C° 0 mm 3 mps 482 mmHg 22%
15:00 +16°C° 0 mm 3 mps 482 mmHg 24%
16:00 +15°C° 0 mm 4 mps 481 mmHg 25%
17:00 +15°C° 0 mm 4 mps 481 mmHg 26%
18:00 +14°C° 0 mm 4 mps 481 mmHg 30%
19:00 +12°C° 0 mm 4 mps 480 mmHg 34%
20:00 +11°C° 0 mm 4 mps 479 mmHg 38%
21:00 +10°C° 0 mm 3 mps 479 mmHg 40%
22:00 +9°C° 0 mm 3 mps 479 mmHg 42%
23:00 +9°C° 0 mm 2 mps 478 mmHg 44%

Tomorrow, 14 August, Friday

Time Temperature Precipitation Wind Pressure Humidity
00:00 +8°C° 0 mm 2 mps 478 mmHg 45%
01:00 +8°C° 0 mm 1 mps 477 mmHg 47%
02:00 +8°C° 0 mm 1 mps 477 mmHg 48%
03:00 +7°C° 0 mm 1 mps 476 mmHg 49%
04:00 +7°C° 0 mm 1 mps 476 mmHg 50%
05:00 +6°C° 0 mm 1 mps 476 mmHg 52%
06:00 +7°C° 0 mm 1 mps 476 mmHg 47%
07:00 +8°C° 0 mm 1 mps 477 mmHg 43%
08:00 +9°C° 0 mm 1 mps 477 mmHg 39%
09:00 +9°C° 0 mm 2 mps 478 mmHg 34%
10:00 +12°C° 0 mm 2 mps 479 mmHg 29%
11:00 +13°C° 0 mm 2 mps 480 mmHg 24%
12:00 +15°C° 0 mm 2 mps 481 mmHg 23%
13:00 +16°C° 0 mm 3 mps 481 mmHg 22%
14:00 +17°C° 0 mm 3 mps 482 mmHg 20%
15:00 +17°C° 0 mm 3 mps 482 mmHg 21%
16:00 +17°C° 0 mm 4 mps 481 mmHg 22%
17:00 +17°C° 0 mm 4 mps 481 mmHg 23%
18:00 +14°C° 0 mm 4 mps 481 mmHg 27%
19:00 +13°C° 0 mm 4 mps 480 mmHg 30%
20:00 +12°C° 0 mm 3 mps 479 mmHg 33%
21:00 +11°C° 0 mm 3 mps 479 mmHg 36%
22:00 +10°C° 0 mm 3 mps 478 mmHg 39%
23:00 +9°C° 0 mm 2 mps 478 mmHg 41%

Day after tomorrow, 15 August, Saturday

Time Temperature Precipitation Wind Pressure Humidity
00:00 +9°C° 0 mm 2 mps 478 mmHg 43%
01:00 +8°C° 0 mm 2 mps 477 mmHg 45%
02:00 +8°C° 0 mm 1 mps 477 mmHg 47%
03:00 +8°C° 0 mm 1 mps 476 mmHg 49%
04:00 +7°C° 0 mm 1 mps 476 mmHg 51%
05:00 +7°C° 0 mm 1 mps 475 mmHg 53%
06:00 +7°C° 0 mm 1 mps 476 mmHg 48%
07:00 +8°C° 0 mm 1 mps 476 mmHg 43%
08:00 +9°C° 0 mm 1 mps 477 mmHg 38%
09:00 +10°C° 0 mm 2 mps 478 mmHg 33%
10:00 +12°C° 0 mm 2 mps 479 mmHg 28%
11:00 +14°C° 0 mm 2 mps 480 mmHg 23%
12:00 +15°C° 0 mm 2 mps 480 mmHg 22%
13:00 +17°C° 0 mm 3 mps 481 mmHg 21%
14:00 +18°C° 0 mm 3 mps 482 mmHg 19%
15:00 +18°C° 0 mm 3 mps 482 mmHg 20%
16:00 +18°C° 0 mm 3 mps 481 mmHg 21%
17:00 +18°C° 0 mm 4 mps 481 mmHg 22%
18:00 +16°C° 0 mm 3 mps 481 mmHg 25%
19:00 +14°C° 0 mm 3 mps 480 mmHg 29%
20:00 +13°C° 0 mm 3 mps 480 mmHg 32%
21:00 +13°C° 0 mm 2 mps 480 mmHg 34%
22:00 +12°C° 0 mm 2 mps 479 mmHg 37%
23:00 +12°C° 0 mm 2 mps 479 mmHg 39%

16 August, Sunday

Time Temperature Precipitation Wind Pressure Humidity
00:00 +11°C° 0 mm 1 mps 478 mmHg 40%
01:00 +11°C° 0 mm 1 mps 478 mmHg 42%
02:00 +10°C° 0 mm 1 mps 477 mmHg 43%
03:00 +9°C° 0 mm 1 mps 477 mmHg 43%
04:00 +9°C° 0 mm 1 mps 477 mmHg 43%
05:00 +8°C° 0 mm 1 mps 477 mmHg 43%
06:00 +9°C° 0 mm 1 mps 477 mmHg 38%
07:00 +10°C° 0 mm 1 mps 478 mmHg 32%
08:00 +12°C° 0 mm 1 mps 479 mmHg 26%
09:00 +13°C° 0 mm 2 mps 480 mmHg 24%
10:00 +15°C° 0 mm 2 mps 481 mmHg 21%
11:00 +16°C° 0 mm 2 mps 482 mmHg 18%
12:00 +17°C° 0 mm 3 mps 482 mmHg 17%
13:00 +18°C° 0 mm 3 mps 483 mmHg 17%
14:00 +19°C° 0 mm 3 mps 483 mmHg 16%
15:00 +19°C° 0 mm 4 mps 483 mmHg 17%
16:00 +19°C° 0 mm 4 mps 483 mmHg 18%
17:00 +19°C° 0 mm 4 mps 483 mmHg 19%
18:00 +17°C° 0 mm 4 mps 482 mmHg 22%
19:00 +15°C° 0 mm 4 mps 481 mmHg 25%
20:00 +14°C° 0 mm 4 mps 481 mmHg 27%
21:00 +13°C° 0 mm 3 mps 480 mmHg 29%
22:00 +12°C° 0 mm 3 mps 480 mmHg 31%
23:00 +12°C° 0 mm 2 mps 480 mmHg 33%

17 August, Monday

Time Temperature Precipitation Wind Pressure Humidity
00:00 +12°C° 0 mm 2 mps 479 mmHg 34%
01:00 +10°C° 0 mm 2 mps 478 mmHg 36%
02:00 +11°C° 0 mm 1 mps 478 mmHg 38%
03:00 +10°C° 0 mm 1 mps 478 mmHg 39%
04:00 +10°C° 0 mm 1 mps 477 mmHg 39%
05:00 +9°C° 0 mm 1 mps 477 mmHg 40%
06:00 +10°C° 0 mm 1 mps 477 mmHg 37%
07:00 +11°C° 0 mm 1 mps 478 mmHg 33%
08:00 +12°C° 0 mm 2 mps 479 mmHg 29%
09:00 +14°C° 0 mm 2 mps 480 mmHg 27%
10:00 +15°C° 0 mm 2 mps 481 mmHg 25%
11:00 +17°C° 0 mm 3 mps 481 mmHg 23%
12:00 +17°C° 0 mm 3 mps 482 mmHg 21%
13:00 +18°C° 0 mm 3 mps 482 mmHg 20%
14:00 +19°C° 0 mm 3 mps 482 mmHg 18%
15:00 +19°C° 0 mm 4 mps 482 mmHg 19%
16:00 +19°C° 0 mm 4 mps 482 mmHg 19%
17:00 +19°C° 0 mm 4 mps 482 mmHg 20%
18:00 +18°C° 0 mm 4 mps 481 mmHg 23%
19:00 +15°C° 0 mm 4 mps 481 mmHg 25%
20:00 +14°C° 0 mm 4 mps 480 mmHg 28%
21:00 +13°C° 0 mm 3 mps 480 mmHg 31%
22:00 +12°C° 0 mm 3 mps 480 mmHg 33%
23:00 +13°C° 0 mm 2 mps 480 mmHg 36%

18 August, Tuesday

Time Temperature Precipitation Wind Pressure Humidity
00:00 +12°C° 0 mm 2 mps 479 mmHg 38%
01:00 +10°C° 0 mm 2 mps 478 mmHg 41%
02:00 +10°C° 0 mm 1 mps 478 mmHg 43%
03:00 +10°C° 0 mm 1 mps 477 mmHg 45%
04:00 +9°C° 0 mm 1 mps 477 mmHg 47%
05:00 +9°C° 0 mm 1 mps 477 mmHg 48%
06:00 +9°C° 0 mm 1 mps 477 mmHg 44%
07:00 +10°C° 0 mm 1 mps 478 mmHg 40%
08:00 +10°C° 0 mm 2 mps 479 mmHg 36%
09:00 +12°C° 0 mm 2 mps 479 mmHg 33%
10:00 +14°C° 0 mm 2 mps 480 mmHg 30%
11:00 +15°C° 0 mm 2 mps 481 mmHg 26%
12:00 +16°C° 0 mm 3 mps 481 mmHg 25%
13:00 +17°C° 0 mm 3 mps 481 mmHg 25%
14:00 +17°C° 0 mm 3 mps 482 mmHg 24%
15:00 +17°C° 0 mm 4 mps 481 mmHg 26%
16:00 +17°C° 0 mm 4 mps 481 mmHg 29%
17:00 +16°C° 0 mm 5 mps 481 mmHg 32%
18:00 +14°C° 0 mm 4 mps 481 mmHg 39%
19:00 +13°C° 0 mm 4 mps 480 mmHg 46%
20:00 +12°C° 0 mm 4 mps 479 mmHg 53%
21:00 +11°C° 0 mm 3 mps 479 mmHg 56%
22:00 +10°C° 0 mm 3 mps 479 mmHg 60%
23:00 +9°C° 0 mm 2 mps 478 mmHg 63%
Show more